This demonstration page uses our WeatherBlox Daily Observations layout. Learn more.

Left ArrowRight Arrow

39.08367, -84.50855

Hourly Observations for May 4, 2019

Temp ( °F °C ) Dew Point ( °F °C ) Humidity (%) Winds ( mph kmh ) Pressure ( in mb ) Visibility ( mi km ) Precip ( " mm )
12:20 am 00:20 Cloudy 63 17.2 59 15 87 87 N 6 9 29.95 1014 9 14.48406 0 0
12:53 am 00:53 Cloudy 63 17.2 58 14.4 84 84 N 6 9 29.95 1014 9 14.48406 0 0
1:44 am 01:44 Cloudy 62 16.7 58 14.4 86 86 N 6 9 29.93 1014 7 11.26538 0 0
1:53 am 01:53 Cloudy with Mist and Fog 62 16.7 58 14.4 86 86 NNW 7 11 29.93 1014 6 9.65604 0 0
2:53 am 02:53 Cloudy with Mist and Fog 61 16.1 57 13.9 87 87 N 8 13 29.92 1013 5 8.0467 0 0
3:16 am 03:16 Cloudy with Mist and Fog 61 16.1 57 13.9 87 87 N 7 11 29.94 1014 4 6.43736 0 0
3:53 am 03:53 Cloudy with Mist and Fog 60 15.6 57 13.9 90 90 NNW 7 11 29.93 1014 5 8.0467 0 0
4:53 am 04:53 Cloudy with Light Rain 59 15 56 13.3 90 90 NNE 6 9 29.93 1014 5 8.0467 0 0.0254
5:53 am 05:53 Cloudy with Mist and Fog 60 15.6 56 13.3 86 86 N 6 9 29.92 1013 5 8.0467 0 0.0254
6:36 am 06:36 Cloudy with Light Rain 59 15 57 13.9 93 93 ENE 3 6 29.93 1013 2.5 4.02335 0.03 0.762
6:50 am 06:50 Cloudy with Rain 59 15 57 14 94 94 Calm 29.93 1013 2.5 4.02335 0.06 1.524
6:53 am 06:53 Cloudy with Light Rain 59 15 57 13.9 93 93 VRB 5 7 29.92 1013 2.5 4.02335 0.06 1.524
7:37 am 07:37 Cloudy with Light Rain 59 15 57 13.9 93 93 ENE 3 6 29.94 1014 2 3.21868 0.05 1.27
7:53 am 07:53 Cloudy with Mist and Fog 59 15 57 13.9 93 93 N 5 7 29.94 1014 3 4.82802 0.05 1.27
8:53 am 08:53 Cloudy with Mist and Fog 60 15.6 57 13.9 90 90 NNE 3 6 29.93 1014 5 8.0467 0 0
9:53 am 09:53 Cloudy with Mist and Fog 60 15.6 57 13.9 90 90 NNE 7 11 29.93 1013 5 8.0467 0 0
10:53 am 10:53 Cloudy with Mist and Fog 60 15.6 56 13.3 86 86 NNE 7 11 29.93 1014 5 8.0467 0 0
11:53 am 11:53 Cloudy with Mist and Fog 59 15 55 12.8 87 87 N 9 15 29.94 1014 5 8.0467 0 0
12:53 pm 12:53 Cloudy with Mist and Fog 59 15 55 12.8 87 87 NE 9 15 29.93 1014 4 6.43736 0 0
1:53 pm 13:53 Cloudy with Mist and Fog 58 14.4 54 12.2 87 87 NE 8 13 29.93 1013 5 8.0467 0 0
2:53 pm 14:53 Cloudy with Light Rain 59 15 54 12.2 83 83 N 7 11 29.91 1013 5 8.0467 0 0.0254
3:53 pm 15:53 Cloudy with Light Rain 58 14.4 55 12.8 90 90 NNE 12 19 29.89 1012 5 8.0467 0.02 0.508
4:53 pm 16:53 Cloudy with Light Rain 58 14.4 54 12.2 87 87 NE 10 17 29.88 1012 7 11.26538 0.01 0.254
5:24 pm 17:24 Cloudy with Light Rain 57 13.9 54 12.2 90 90 NNE 9 15 29.88 1012 5 8.0467 0.01 0.254
5:53 pm 17:53 Cloudy with Light Rain 57 13.9 55 12.8 93 93 NE 7 11 29.87 1011 4 6.43736 0.03 0.762
6:38 pm 18:38 Cloudy with Light Rain 57 13.9 55 12.8 93 93 NNE 8 13 29.87 1012 6 9.65604 0.01 0.254
6:53 pm 18:53 Cloudy with Light Rain 57 13.9 55 12.8 93 93 NNE 6 9 29.86 1011 6 9.65604 0.01 0.254
7:53 pm 19:53 Cloudy with Light Rain 57 13.9 55 12.8 93 93 ENE 5 7 29.86 1011 10 16.0934 0.01 0.254
8:53 pm 20:53 Cloudy 57 13.9 55 12.8 93 93 VRB 5 7 29.85 1011 10 16.0934 0 0.0254
9:23 pm 21:23 Cloudy 58 14.4 55 12.8 90 90 VRB 3 6 29.85 1011 10 16.0934 0 0
9:53 pm 21:53 Cloudy 57 13.9 54 12.2 90 90 NNE 6 9 29.85 1011 10 16.0934 0 0
10:53 pm 22:53 Cloudy 57 13.9 54 12.2 90 90 NNE 6 9 29.86 1011 10 16.0934 0 0
11:42 pm 23:42 Cloudy 57 13.9 53 11.7 87 87 NNE 8 13 29.86 1011 10 16.0934 0 0
11:53 pm 23:53 Cloudy 57 13.9 53 11.7 87 87 NNE 8 13 29.85 1011 10 16.0934 0 0

Powered by AerisWeather